Regional Weather Roundup
Issued by NWS

Home | Current Version | Previous Version | Graphics & Text | Print | Product List | Glossary Off
Versions: 1 2 3 4 5 6 7 8 9 10 11 12 13 14 15 16 17 18 19 20 21 22 23 24 25 26 27 28 29 30 31 32 33 34 35 36 37 38 39 40 41 42 43 44 45 46 47 48

000
ASUS45 KCYS 230510
RWRWY

WYOMING REGIONAL WEATHER ROUNDUP
NATIONAL WEATHER SERVICE CHEYENNE WY
1100 PM MDT WED MAR 22 2017

NOTE:  "FAIR" INDICATES FEW OR NO CLOUDS BELOW 12,000 FEET
WITH NO SIGNIFICANT WEATHER AND/OR OBSTRUCTIONS TO VISIBILITY.

WYZ001-230600-
YELLOWSTONE NATIONAL PARK

CITY           SKY/WX    TMP DP  RH WIND       PRES   REMARKS
LK YELLOWSTONE   N/A     29  28  96 CALM      29.89F
W YELLOWSTONE  NOT AVBL

$$
WYZ002>013-054>058-071-098>099-230600-
NORTHERN WYOMING

CITY           SKY/WX    TMP DP  RH WIND       PRES   REMARKS
JACKSON        FAIR      36  36 100 N5        29.85F WCI  32
CODY           FAIR      52  32  46 N6        29.80R
GREYBULL       FAIR      52  40  63 W10       29.71R
WORLAND        MOCLDY    51  39  63 S6        29.73R
SHERIDAN       FAIR      41  37  86 N5        29.77R
BUFFALO        FAIR      48  38  68 CALM      29.79F
GILLETTE       FAIR      43  39  86 CALM      29.76S
HULETT         FAIR      48  41  76 NE3       29.77S
NEWCASTLE      FAIR      55  34  44 SE7       29.77S

$$
WYZ014>020-022>026-101>103-230600-
CENTRAL WYOMING

CITY           SKY/WX    TMP DP  RH WIND       PRES   REMARKS
BIG PINEY      LGT RAIN  34  34 100 E7        29.87F WCI  28
PINEDALE       CLOUDY    32  32 100 W3        29.88S
DUBOIS         CLOUDY    37  32  81 W8        29.84F WCI  31
LANDER         CLOUDY    45  35  68 W7        29.79S
RIVERTON       CLOUDY    48  38  68 CALM      29.81R
CASPER         MOCLDY    44  40  85 SE8       29.82F
DOUGLAS        FAIR      47  39  74 NW3       29.78F

$$
WYZ021-027>030-104>119-230600-
SOUTHERN WYOMING

CITY           SKY/WX    TMP DP  RH WIND       PRES   REMARKS
EVANSTON       FAIR      38  34  85 N9        29.82F FOG     WCI  31
KEMMERER       RAIN      36  34  93 CALM      29.86F
ROCK SPRINGS   LGT RAIN  41  37  86 NW10      29.86S
DIXON            N/A     50  33  51 SW7       29.89F
RAWLINS        CLOUDY    48  31  51 SE3       29.88R
SARATOGA       MOCLDY    50  30  46 SW7G16    29.90S
LARAMIE        FAIR      41  23  48 SW9       29.86F
CHEYENNE       FAIR      54  35  48 SE14      29.84F
TORRINGTON     FAIR      51  35  54 E14       29.78F
PINE BLUFFS    FAIR      54  36  50 SE16G22   29.83F

$$



USA.gov is the U.S. government's official web portal to all federal, state and local government web resources and services.